• In Belarus
  • List of Countries
  • For 7 days
  • Water Temperature
  • Weather Map
  • Weather Widgets
  • user-avatar
    Login

    Hourly Weather Tsumeb

    Today, 23 August, Friday

    Time Temperature Precipitation Wind Pressure Humidity
    00:00 +14°C° 0 mm 4 mps 658 mmHg 24%
    01:00 +13°C° 0 mm 4 mps 658 mmHg 22%
    02:00 +12°C° 0 mm 5 mps 658 mmHg 23%
    03:00 +10°C° 0 mm 5 mps 657 mmHg 23%
    04:00 +10°C° 0 mm 5 mps 657 mmHg 23%
    05:00 +10°C° 0 mm 5 mps 658 mmHg 24%
    06:00 +12°C° 0 mm 5 mps 658 mmHg 25%
    07:00 +12°C° 0 mm 5 mps 659 mmHg 25%
    08:00 +16°C° 0 mm 6 mps 660 mmHg 21%
    09:00 +20°C° 0 mm 7 mps 660 mmHg 16%
    10:00 +23°C° 0 mm 8 mps 661 mmHg 12%
    11:00 +26°C° 0 mm 8 mps 660 mmHg 11%
    12:00 +27°C° 0 mm 8 mps 660 mmHg 9%
    13:00 +29°C° 0 mm 8 mps 660 mmHg 8%
    14:00 +29°C° 0 mm 8 mps 659 mmHg 8%
    15:00 +29°C° 0 mm 7 mps 658 mmHg 9%
    16:00 +28°C° 0 mm 7 mps 658 mmHg 9%
    17:00 +24°C° 0 mm 6 mps 658 mmHg 11%
    18:00 +22°C° 0 mm 5 mps 657 mmHg 13%
    19:00 +19°C° 0 mm 5 mps 657 mmHg 15%
    20:00 +17°C° 0 mm 5 mps 658 mmHg 16%
    21:00 +16°C° 0 mm 5 mps 658 mmHg 17%
    22:00 +15°C° 0 mm 5 mps 658 mmHg 18%
    23:00 +15°C° 0 mm 5 mps 658 mmHg 19%

    Tomorrow, 24 August, Saturday

    Time Temperature Precipitation Wind Pressure Humidity
    00:00 +14°C° 0 mm 5 mps 658 mmHg 20%
    01:00 +13°C° 0 mm 5 mps 658 mmHg 22%
    02:00 +13°C° 0 mm 5 mps 657 mmHg 23%
    03:00 +12°C° 0 mm 5 mps 657 mmHg 24%
    04:00 +12°C° 0 mm 4 mps 657 mmHg 25%
    05:00 +13°C° 0 mm 4 mps 657 mmHg 24%
    06:00 +13°C° 0 mm 4 mps 658 mmHg 24%
    07:00 +14°C° 0 mm 4 mps 658 mmHg 23%
    08:00 +17°C° 0 mm 6 mps 659 mmHg 19%
    09:00 +22°C° 0 mm 7 mps 660 mmHg 14%
    10:00 +26°C° 0 mm 9 mps 661 mmHg 10%
    11:00 +28°C° 0 mm 8 mps 660 mmHg 10%
    12:00 +29°C° 0 mm 8 mps 659 mmHg 9%
    13:00 +31°C° 0 mm 8 mps 659 mmHg 9%
    14:00 +30°C° 0 mm 7 mps 658 mmHg 9%
    15:00 +30°C° 0 mm 7 mps 658 mmHg 9%
    16:00 +30°C° 0 mm 7 mps 657 mmHg 9%
    17:00 +27°C° 0 mm 6 mps 657 mmHg 11%
    18:00 +22°C° 0 mm 5 mps 656 mmHg 14%
    19:00 +19°C° 0 mm 4 mps 656 mmHg 16%
    20:00 +18°C° 0 mm 4 mps 656 mmHg 15%
    21:00 +16°C° 0 mm 5 mps 657 mmHg 15%
    22:00 +16°C° 0 mm 5 mps 657 mmHg 14%
    23:00 +15°C° 0 mm 5 mps 657 mmHg 15%

    Day after tomorrow, 25 August, Sunday

    Time Temperature Precipitation Wind Pressure Humidity
    00:00 +15°C° 0 mm 5 mps 657 mmHg 15%
    01:00 +14°C° 0 mm 5 mps 656 mmHg 15%
    02:00 +13°C° 0 mm 5 mps 656 mmHg 15%
    03:00 +13°C° 0 mm 5 mps 656 mmHg 16%
    04:00 +12°C° 0 mm 5 mps 655 mmHg 16%
    05:00 +13°C° 0 mm 5 mps 656 mmHg 16%
    06:00 +14°C° 0 mm 4 mps 657 mmHg 15%
    07:00 +14°C° 0 mm 4 mps 657 mmHg 15%
    08:00 +19°C° 0 mm 5 mps 658 mmHg 13%
    09:00 +22°C° 0 mm 6 mps 659 mmHg 11%
    10:00 +27°C° 0 mm 7 mps 659 mmHg 8%
    11:00 +28°C° 0 mm 7 mps 659 mmHg 7%
    12:00 +29°C° 0 mm 6 mps 658 mmHg 7%
    13:00 +30°C° 0 mm 6 mps 657 mmHg 6%
    14:00 +30°C° 0 mm 6 mps 657 mmHg 5%
    15:00 +32°C° 0 mm 6 mps 657 mmHg 5%
    16:00 +32°C° 0 mm 6 mps 656 mmHg 5%
    17:00 +27°C° 0 mm 5 mps 656 mmHg 7%
    18:00 +23°C° 0 mm 4 mps 655 mmHg 9%
    19:00 +19°C° 0 mm 3 mps 655 mmHg 11%
    20:00 +18°C° 0 mm 4 mps 655 mmHg 12%
    21:00 +18°C° 0 mm 4 mps 655 mmHg 12%
    22:00 +17°C° 0 mm 4 mps 656 mmHg 13%
    23:00 +15°C° 0 mm 4 mps 655 mmHg 14%

    26 August, Monday

    Time Temperature Precipitation Wind Pressure Humidity
    00:00 +14°C° 0 mm 4 mps 655 mmHg 15%
    01:00 +14°C° 0 mm 4 mps 655 mmHg 15%
    02:00 +14°C° 0 mm 4 mps 655 mmHg 16%
    03:00 +13°C° 0 mm 4 mps 655 mmHg 17%
    04:00 +13°C° 0 mm 4 mps 655 mmHg 18%
    05:00 +14°C° 0 mm 4 mps 655 mmHg 18%
    06:00 +15°C° 0 mm 4 mps 656 mmHg 18%
    07:00 +17°C° 0 mm 4 mps 657 mmHg 18%
    08:00 +20°C° 0 mm 5 mps 657 mmHg 15%
    09:00 +23°C° 0 mm 5 mps 658 mmHg 12%
    10:00 +28°C° 0 mm 5 mps 658 mmHg 10%
    11:00 +29°C° 0 mm 5 mps 658 mmHg 9%
    12:00 +30°C° 0 mm 4 mps 657 mmHg 7%
    13:00 +30°C° 0 mm 3 mps 657 mmHg 6%
    14:00 +31°C° 0 mm 3 mps 656 mmHg 6%
    15:00 +31°C° 0 mm 3 mps 656 mmHg 6%
    16:00 +31°C° 0 mm 2 mps 656 mmHg 6%
    17:00 +27°C° 0 mm 2 mps 655 mmHg 11%
    18:00 +23°C° 0 mm 2 mps 654 mmHg 17%
    19:00 +18°C° 0 mm 2 mps 654 mmHg 23%
    20:00 +18°C° 0 mm 2 mps 654 mmHg 21%
    21:00 +18°C° 0 mm 2 mps 654 mmHg 18%
    22:00 +18°C° 0 mm 3 mps 655 mmHg 16%
    23:00 +18°C° 0 mm 3 mps 655 mmHg 16%

    27 August, Tuesday

    Time Temperature Precipitation Wind Pressure Humidity
    00:00 +18°C° 0 mm 3 mps 655 mmHg 16%
    01:00 +17°C° 0 mm 3 mps 655 mmHg 16%
    02:00 +16°C° 0 mm 3 mps 654 mmHg 19%
    03:00 +16°C° 0 mm 2 mps 654 mmHg 21%
    04:00 +15°C° 0 mm 2 mps 654 mmHg 24%
    05:00 +16°C° 0 mm 2 mps 655 mmHg 21%
    06:00 +17°C° 0 mm 2 mps 655 mmHg 19%
    07:00 +18°C° 0 mm 2 mps 656 mmHg 16%
    08:00 +22°C° 0 mm 3 mps 657 mmHg 13%
    09:00 +27°C° 0 mm 4 mps 658 mmHg 11%
    10:00 +30°C° 0 mm 5 mps 658 mmHg 9%
    11:00 +32°C° 0 mm 4 mps 658 mmHg 8%
    12:00 +33°C° 0 mm 3 mps 657 mmHg 8%
    13:00 +34°C° 0 mm 2 mps 657 mmHg 7%
    14:00 +34°C° 0 mm 2 mps 656 mmHg 7%
    15:00 +34°C° 0 mm 3 mps 656 mmHg 7%
    16:00 +34°C° 0 mm 3 mps 655 mmHg 6%
    17:00 +30°C° 0 mm 3 mps 655 mmHg 9%
    18:00 +26°C° 0 mm 3 mps 654 mmHg 12%
    19:00 +22°C° 0 mm 3 mps 654 mmHg 14%
    20:00 +21°C° 0 mm 3 mps 654 mmHg 15%
    21:00 +20°C° 0 mm 3 mps 654 mmHg 15%
    22:00 +20°C° 0 mm 3 mps 654 mmHg 15%
    23:00 +20°C° 0 mm 4 mps 654 mmHg 14%

    28 August, Wednesday

    Time Temperature Precipitation Wind Pressure Humidity
    00:00 +20°C° 0 mm 4 mps 654 mmHg 13%
    01:00 +20°C° 0 mm 5 mps 654 mmHg 12%
    02:00 +19°C° 0 mm 5 mps 654 mmHg 13%
    03:00 +19°C° 0 mm 5 mps 654 mmHg 14%
    04:00 +17°C° 0 mm 5 mps 654 mmHg 15%
    05:00 +19°C° 0 mm 5 mps 654 mmHg 14%
    06:00 +20°C° 0 mm 5 mps 655 mmHg 13%
    07:00 +20°C° 0 mm 5 mps 656 mmHg 12%
    08:00 +25°C° 0 mm 5 mps 656 mmHg 10%
    09:00 +28°C° 0 mm 5 mps 657 mmHg 8%
    10:00 +33°C° 0 mm 4 mps 657 mmHg 7%
    11:00 +34°C° 0 mm 4 mps 657 mmHg 7%
    12:00 +35°C° 0 mm 4 mps 656 mmHg 7%
    13:00 +35°C° 0 mm 3 mps 655 mmHg 7%
    14:00 +35°C° 0 mm 4 mps 655 mmHg 7%
    15:00 +35°C° 0 mm 4 mps 654 mmHg 7%
    16:00 +35°C° 0 mm 5 mps 654 mmHg 6%
    17:00 +32°C° 0 mm 5 mps 653 mmHg 8%
    18:00 +28°C° 0 mm 4 mps 653 mmHg 10%
    19:00 +23°C° 0 mm 4 mps 653 mmHg 12%
    20:00 +23°C° 0 mm 5 mps 653 mmHg 12%
    21:00 +22°C° 0 mm 5 mps 653 mmHg 11%
    22:00 +21°C° 0 mm 6 mps 654 mmHg 11%
    23:00 +21°C° 0 mm 6 mps 654 mmHg 12%
    Show more